Time,TemperatureF,DewpointF,PressureIn,WindDirection,WindDirectionDegrees,WindSpeedMPH,WindSpeedGustMPH,Humidity,HourlyPrecipIn,Conditions,Clouds,dailyrainin,SoftwareType,DateUTC
2013-10-06 00:00:00,77.1,75.6,29.93,North,-999,0.0,0.0,95,0.00,,,-99.99,WeatherLink 5.4,2013-10-06 04:00:00,
2013-10-06 00:15:00,76.8,75.3,29.93,North,-999,0.0,0.0,95,0.00,,,-99.99,WeatherLink 5.4,2013-10-06 04:15:00,
2013-10-06 00:30:00,76.7,75.2,29.93,North,-999,0.0,0.0,95,0.00,,,-99.99,WeatherLink 5.4,2013-10-06 04:30:00,
2013-10-06 00:45:00,76.5,75.3,29.93,North,-999,0.0,0.0,96,0.00,,,-99.99,WeatherLink 5.4,2013-10-06 04:45:00,
2013-10-06 01:00:00,76.5,75.3,29.93,East,90,0.0,1.0,96,0.00,,,-99.99,WeatherLink 5.4,2013-10-06 05:00:00,
2013-10-06 01:15:00,76.5,75.6,29.92,North,-999,0.0,0.0,97,0.00,,,-99.99,WeatherLink 5.4,2013-10-06 05:15:00,
2013-10-06 01:30:00,76.5,75.6,29.91,North,-999,0.0,0.0,97,0.00,,,-99.99,WeatherLink 5.4,2013-10-06 05:30:00,
2013-10-06 01:45:00,76.3,75.7,29.92,North,-999,0.0,0.0,98,0.00,,,-99.99,WeatherLink 5.4,2013-10-06 05:45:00,
2013-10-06 02:00:00,76.2,75.9,29.91,North,-999,0.0,0.0,99,0.00,,,-99.99,WeatherLink 5.4,2013-10-06 06:00:00,
2013-10-06 02:15:00,76.3,76.0,29.91,East,90,0.0,1.0,99,0.00,,,-99.99,WeatherLink 5.4,2013-10-06 06:15:00,
2013-10-06 02:30:00,76.1,75.8,29.91,North,-999,0.0,0.0,99,0.00,,,-99.99,WeatherLink 5.4,2013-10-06 06:30:00,
2013-10-06 02:45:00,75.9,75.6,29.90,North,-999,0.0,0.0,99,0.00,,,-99.99,WeatherLink 5.4,2013-10-06 06:45:00,
2013-10-06 03:00:00,75.5,75.5,29.90,North,-999,0.0,0.0,100,0.00,,,-99.99,WeatherLink 5.4,2013-10-06 07:00:00,
2013-10-06 03:15:00,75.3,75.3,29.89,North,-999,0.0,0.0,100,0.00,,,-99.99,WeatherLink 5.4,2013-10-06 07:15:00,
2013-10-06 03:30:00,75.1,75.1,29.89,North,-999,0.0,0.0,100,0.00,,,-99.99,WeatherLink 5.4,2013-10-06 07:30:00,
2013-10-06 03:45:00,75.1,75.1,29.89,North,-999,0.0,0.0,100,0.00,,,-99.99,WeatherLink 5.4,2013-10-06 07:45:00,
2013-10-06 04:00:00,75.1,75.1,29.88,North,-999,0.0,0.0,100,0.00,,,-99.99,WeatherLink 5.4,2013-10-06 08:00:00,
2013-10-06 04:15:00,75.2,75.2,29.88,North,-999,0.0,0.0,100,0.00,,,-99.99,WeatherLink 5.4,2013-10-06 08:15:00,
2013-10-06 04:30:00,75.3,75.3,29.88,North,-999,0.0,0.0,100,0.00,,,-99.99,WeatherLink 5.4,2013-10-06 08:30:00,
2013-10-06 04:45:00,75.4,75.4,29.87,North,-999,0.0,0.0,100,0.00,,,-99.99,WeatherLink 5.4,2013-10-06 08:45:00,
2013-10-06 05:00:00,75.3,75.3,29.87,North,-999,0.0,0.0,100,0.00,,,-99.99,WeatherLink 5.4,2013-10-06 09:00:00,
2013-10-06 05:15:00,74.8,74.8,29.87,North,-999,0.0,0.0,100,0.00,,,-99.99,WeatherLink 5.4,2013-10-06 09:15:00,
2013-10-06 05:30:00,74.6,74.6,29.87,North,-999,0.0,0.0,100,0.00,,,-99.99,WeatherLink 5.4,2013-10-06 09:30:00,
2013-10-06 05:45:00,74.4,74.4,29.87,North,-999,0.0,0.0,100,0.00,,,-99.99,WeatherLink 5.4,2013-10-06 09:45:00,
2013-10-06 06:00:00,74.2,74.2,29.86,North,-999,0.0,0.0,100,0.00,,,-99.99,WeatherLink 5.4,2013-10-06 10:00:00,
2013-10-06 06:15:00,74.0,74.0,29.86,North,-999,0.0,0.0,100,0.00,,,-99.99,WeatherLink 5.4,2013-10-06 10:15:00,
2013-10-06 06:30:00,73.6,73.6,29.87,North,-999,0.0,0.0,100,0.00,,,-99.99,WeatherLink 5.4,2013-10-06 10:30:00,
2013-10-06 06:45:00,73.5,73.5,29.86,North,-999,0.0,0.0,100,0.00,,,-99.99,WeatherLink 5.4,2013-10-06 10:45:00,
2013-10-06 07:00:00,73.8,73.8,29.87,East,90,0.0,1.0,100,0.00,,,-99.99,WeatherLink 5.4,2013-10-06 11:00:00,
2013-10-06 07:15:00,74.5,74.5,29.87,North,-999,0.0,0.0,100,0.01,,,-99.99,WeatherLink 5.4,2013-10-06 11:15:00,
2013-10-06 07:30:00,74.5,74.5,29.87,North,-999,0.0,0.0,100,0.01,,,-99.99,WeatherLink 5.4,2013-10-06 11:30:00,
2013-10-06 07:45:00,74.4,74.4,29.87,North,-999,0.0,0.0,100,0.01,,,-99.99,WeatherLink 5.4,2013-10-06 11:45:00,
2013-10-06 08:00:00,74.4,74.4,29.88,North,-999,0.0,0.0,100,0.01,,,-99.99,WeatherLink 5.4,2013-10-06 12:00:00,
2013-10-06 08:15:00,74.3,74.3,29.88,North,-999,0.0,0.0,100,0.00,,,-99.99,WeatherLink 5.4,2013-10-06 12:15:00,
2013-10-06 08:30:00,74.6,74.6,29.89,East,90,0.0,1.0,100,0.00,,,-99.99,WeatherLink 5.4,2013-10-06 12:30:00,
2013-10-06 08:45:00,74.7,74.7,29.88,North,-999,0.0,0.0,100,0.00,,,-99.99,WeatherLink 5.4,2013-10-06 12:45:00,
2013-10-06 09:00:00,74.7,74.7,29.88,North,-999,0.0,0.0,100,0.00,,,-99.99,WeatherLink 5.4,2013-10-06 13:00:00,
2013-10-06 09:15:00,75.0,75.0,29.88,North,-999,0.0,0.0,100,0.00,,,-99.99,WeatherLink 5.4,2013-10-06 13:15:00,
2013-10-06 09:30:00,75.5,75.5,29.90,North,-999,0.0,0.0,100,0.00,,,-99.99,WeatherLink 5.4,2013-10-06 13:30:00,
2013-10-06 09:45:00,75.8,75.8,29.90,SE,135,0.0,5.0,100,0.00,,,-99.99,WeatherLink 5.4,2013-10-06 13:45:00,
2013-10-06 10:00:00,75.6,75.6,29.90,SE,135,1.0,7.0,100,0.00,,,-99.99,WeatherLink 5.4,2013-10-06 14:00:00,
2013-10-06 10:15:00,75.3,75.3,29.90,SE,135,1.0,7.0,100,0.00,,,-99.99,WeatherLink 5.4,2013-10-06 14:15:00,
2013-10-06 10:30:00,75.4,75.4,29.90,ENE,67,0.0,3.0,100,0.00,,,-99.99,WeatherLink 5.4,2013-10-06 14:30:00,
2013-10-06 10:45:00,75.9,75.3,29.90,ENE,67,0.0,1.0,98,0.00,,,-99.99,WeatherLink 5.4,2013-10-06 14:45:00,
2013-10-06 11:00:00,76.1,74.6,29.90,SSE,157,0.0,2.0,95,0.00,,,-99.99,WeatherLink 5.4,2013-10-06 15:00:00,
2013-10-06 11:15:00,76.8,74.6,29.91,North,-999,0.0,0.0,93,0.00,,,-99.99,WeatherLink 5.4,2013-10-06 15:15:00,
2013-10-06 11:30:00,77.7,73.9,29.90,SSE,157,0.0,1.0,88,0.00,,,-99.99,WeatherLink 5.4,2013-10-06 15:30:00,
2013-10-06 11:45:00,78.8,73.6,29.90,ESE,112,0.0,3.0,84,0.00,,,-99.99,WeatherLink 5.4,2013-10-06 15:45:00,
2013-10-06 12:00:00,79.8,74.2,29.90,ESE,112,0.0,1.0,83,0.00,,,-99.99,WeatherLink 5.4,2013-10-06 16:00:00,
2013-10-06 12:15:00,80.5,74.5,29.90,ESE,112,0.0,3.0,82,0.00,,,-99.99,WeatherLink 5.4,2013-10-06 16:15:00,
2013-10-06 12:30:00,80.9,74.1,29.90,SE,135,0.0,2.0,80,0.00,,,-99.99,WeatherLink 5.4,2013-10-06 16:30:00,
2013-10-06 12:45:00,81.4,75.4,29.90,SE,135,0.0,4.0,82,0.00,,,-99.99,WeatherLink 5.4,2013-10-06 16:45:00,
2013-10-06 13:00:00,81.7,75.3,29.89,SE,135,0.0,4.0,81,0.00,,,-99.99,WeatherLink 5.4,2013-10-06 17:00:00,
2013-10-06 13:15:00,82.3,75.1,29.89,SE,135,1.0,9.0,79,0.00,,,-99.99,WeatherLink 5.4,2013-10-06 17:15:00,
2013-10-06 13:30:00,82.4,75.6,29.88,SSE,157,1.0,4.0,80,0.00,,,-99.99,WeatherLink 5.4,2013-10-06 17:30:00,
2013-10-06 13:45:00,82.6,75.4,29.87,SE,135,1.0,6.0,79,0.00,,,-99.99,WeatherLink 5.4,2013-10-06 17:45:00,
2013-10-06 14:00:00,82.8,74.8,29.87,SE,135,1.0,6.0,77,0.00,,,-99.99,WeatherLink 5.4,2013-10-06 18:00:00,
2013-10-06 14:15:00,83.3,74.9,29.87,SE,135,1.0,6.0,76,0.00,,,-99.99,WeatherLink 5.4,2013-10-06 18:15:00,
2013-10-06 14:30:00,83.3,74.1,29.86,SE,135,2.0,9.0,74,0.00,,,-99.99,WeatherLink 5.4,2013-10-06 18:30:00,
2013-10-06 14:45:00,83.4,75.0,29.85,SSE,157,0.0,11.0,76,0.00,,,-99.99,WeatherLink 5.4,2013-10-06 18:45:00,
2013-10-06 15:00:00,83.7,74.5,29.85,SE,135,1.0,6.0,74,0.00,,,-99.99,WeatherLink 5.4,2013-10-06 19:00:00,
2013-10-06 15:15:00,84.2,75.4,29.84,SE,135,2.0,11.0,75,0.00,,,-99.99,WeatherLink 5.4,2013-10-06 19:15:00,
2013-10-06 15:30:00,84.5,75.7,29.83,SE,135,2.0,7.0,75,0.00,,,-99.99,WeatherLink 5.4,2013-10-06 19:30:00,
2013-10-06 15:45:00,84.5,74.9,29.83,SE,135,3.0,11.0,73,0.00,,,-99.99,WeatherLink 5.4,2013-10-06 19:45:00,
2013-10-06 16:00:00,84.2,76.2,29.82,SE,135,3.0,11.0,77,0.00,,,-99.99,WeatherLink 5.4,2013-10-06 20:00:00,
2013-10-06 16:15:00,83.7,75.3,29.82,East,90,2.0,9.0,76,0.00,,,-99.99,WeatherLink 5.4,2013-10-06 20:15:00,
2013-10-06 16:30:00,84.3,75.5,29.81,East,90,2.0,7.0,75,0.00,,,-99.99,WeatherLink 5.4,2013-10-06 20:30:00,
2013-10-06 16:45:00,84.4,75.6,29.81,SE,135,2.0,8.0,75,0.00,,,-99.99,WeatherLink 5.4,2013-10-06 20:45:00,
2013-10-06 17:00:00,84.1,75.7,29.81,SSE,157,2.0,10.0,76,0.00,,,-99.99,WeatherLink 5.4,2013-10-06 21:00:00,
2013-10-06 17:15:00,84.0,75.6,29.80,SSE,157,2.0,11.0,76,0.00,,,-99.99,WeatherLink 5.4,2013-10-06 21:15:00,
2013-10-06 17:30:00,83.9,75.5,29.80,SSE,157,4.0,12.0,76,0.00,,,-99.99,WeatherLink 5.4,2013-10-06 21:30:00,
2013-10-06 17:45:00,84.0,76.0,29.80,SSE,157,2.0,10.0,77,0.00,,,-99.99,WeatherLink 5.4,2013-10-06 21:45:00,
2013-10-06 18:00:00,83.8,75.4,29.80,SSE,157,2.0,11.0,76,0.00,,,-99.99,WeatherLink 5.4,2013-10-06 22:00:00,
2013-10-06 18:15:00,83.8,75.8,29.80,SE,135,2.0,9.0,77,0.00,,,-99.99,WeatherLink 5.4,2013-10-06 22:15:00,
2013-10-06 18:30:00,83.4,76.2,29.79,SE,135,2.0,10.0,79,0.00,,,-99.99,WeatherLink 5.4,2013-10-06 22:30:00,
2013-10-06 18:45:00,83.0,75.8,29.79,SSE,157,2.0,13.0,79,0.00,,,-99.99,WeatherLink 5.4,2013-10-06 22:45:00,
2013-10-06 19:00:00,82.7,76.3,29.80,SSE,157,3.0,13.0,81,0.00,,,-99.99,WeatherLink 5.4,2013-10-06 23:00:00,
2013-10-06 19:15:00,82.0,76.0,29.80,SE,135,1.0,5.0,82,0.00,,,-99.99,WeatherLink 5.4,2013-10-06 23:15:00,
2013-10-06 19:30:00,81.8,76.5,29.81,SE,135,1.0,6.0,84,0.00,,,-99.99,WeatherLink 5.4,2013-10-06 23:30:00,
2013-10-06 19:45:00,81.5,76.6,29.81,SE,135,1.0,6.0,85,0.00,,,-99.99,WeatherLink 5.4,2013-10-06 23:45:00,
2013-10-06 20:00:00,81.1,76.9,29.81,SE,135,1.0,7.0,87,0.00,,,-99.99,WeatherLink 5.4,2013-10-07 00:00:00,
2013-10-06 20:15:00,80.7,76.8,29.81,SE,135,0.0,5.0,88,0.00,,,-99.99,WeatherLink 5.4,2013-10-07 00:15:00,
2013-10-06 20:30:00,80.3,76.8,29.81,SE,135,0.0,5.0,89,0.00,,,-99.99,WeatherLink 5.4,2013-10-07 00:30:00,
2013-10-06 20:45:00,80.1,76.9,29.81,ESE,112,1.0,4.0,90,0.00,,,-99.99,WeatherLink 5.4,2013-10-07 00:45:00,
2013-10-06 21:00:00,79.9,76.7,29.81,SE,135,0.0,4.0,90,0.00,,,-99.99,WeatherLink 5.4,2013-10-07 01:00:00,
2013-10-06 21:15:00,79.9,76.7,29.81,SE,135,0.0,5.0,90,0.00,,,-99.99,WeatherLink 5.4,2013-10-07 01:15:00,
2013-10-06 21:30:00,79.8,76.6,29.81,SE,135,0.0,5.0,90,0.00,,,-99.99,WeatherLink 5.4,2013-10-07 01:30:00,
2013-10-06 21:45:00,79.7,76.8,29.81,SE,135,0.0,1.0,91,0.00,,,-99.99,WeatherLink 5.4,2013-10-07 01:45:00,
2013-10-06 22:00:00,79.4,76.9,29.81,SE,135,0.0,1.0,92,0.00,,,-99.99,WeatherLink 5.4,2013-10-07 02:00:00,
2013-10-06 22:15:00,79.3,76.8,29.81,SE,135,0.0,1.0,92,0.00,,,-99.99,WeatherLink 5.4,2013-10-07 02:15:00,
2013-10-06 22:30:00,79.1,76.9,29.81,SE,135,0.0,3.0,93,0.00,,,-99.99,WeatherLink 5.4,2013-10-07 02:30:00,
2013-10-06 22:45:00,79.0,77.1,29.81,SE,135,0.0,1.0,94,0.00,,,-99.99,WeatherLink 5.4,2013-10-07 02:45:00,
2013-10-06 23:00:00,78.9,77.3,29.81,North,-999,0.0,0.0,95,0.00,,,-99.99,WeatherLink 5.4,2013-10-07 03:00:00,
2013-10-06 23:15:00,78.6,77.0,29.81,SE,135,0.0,1.0,95,0.00,,,-99.99,WeatherLink 5.4,2013-10-07 03:15:00,
2013-10-06 23:30:00,78.4,76.8,29.81,SSE,157,0.0,2.0,95,0.00,,,-99.99,WeatherLink 5.4,2013-10-07 03:30:00,
2013-10-06 23:45:00,78.3,77.1,29.81,SSE,157,0.0,1.0,96,0.00,,,-99.99,WeatherLink 5.4,2013-10-07 03:45:00,